STARLINK-11411, 62018

Orbit data source: Space-Track

STARLINK-11411, 62018 is a payload satellite owned by SpaceX/Seattle (US) in LEO that was launched on Mon, 18 Nov 2024 UTC via an FALCON 9 launch vehicle from the Air Force Western Test Range (AFWTR). Payloads include a variety of satellites, spacecraft, and rockets equipped with specific instruments for various scientific and technological missions. These include communications satellites like Starlink; space stations such as the ISS; scientific satellites like the Hubble; Earth observation satellites from companies like Planet Labs, Umbra, and HawkEye 360; GPS; miniature CubeSats for education and research; and military/defense satellites.

Loading next visibility...
STARLINK-11411 details
Identifier
62018, 2024-213L
Orbit
LEO
Last TLE update14 hours ago
Origin
Flag of USSpaceX/Seattle (US)
ManufacturerSpaceX/Seattle
MissionOperational spacecraft
Bus & MotorSTARLINK V2M, Unknown motor
Mass730 kg wet, ~700 kg dry
Launch date (UTC)
2024-11-18 (1 month ago)
Launch vehicle
FALCON 9
Launch site
Air Force Western Test Range (AFWTR)
Object type
Payload
Rocket body
Debris
Shape & HBRUnknown
Radar Cross SectionLarge (>1 m²)

Expand to show TLE details & history

TLE from 14 hours ago
0 STARLINK-11411
1 62018U 24213L   24360.86230224 -.00000942  00000-0 -17592-5 0  9997
2 62018  53.1558  47.3733 0001218  90.2153 269.9007 15.76713632  7152
Epoch: 2024-12-25T20:41Z
Definitive object data (Epoch: 2024-12-25T20:41:42.913Z)
Latitude-0.00006°
Longitude2.09449°
Altitude340.678 km
Speed7.706 km/s
True Right ascension03h 09m 29s
True Declination0° 00' 00"
Sunlit
Object was in full shadow at TLE epoch
Visualization TLE readout
Latitude51.6503°
Longitude69.53298°
Altitude345.142 km
Speed7.709 km/s
Apparent Right ascension01h 57m 15s
Apparent Declination22° 05' 20"
Sunlit
Object is in full shadow
Visualization observer readout
Local Sidereal Time10:04:09
Azimuth307.33° NW
Elevation-7.609°
Doppler factor1
Orbital elements
Apogee altitude340.84 km
Perigee altitude339.203 km
Semi-major axis6,718.158 km
Eccentricity0.0001218
Inclination53.1558°
RAAN47.3733°
Arg. of periapsis90.2153°
True anomaly269.88674°
Mean anomaly269.9007°
Eccentric anomaly269.89372°
Mean motion3.94156 °/min
BSTAR-0.0000017592
Orbital period91.33 mins
Loading maneuver chart data...
Loading historical data...
Loading historical data...
Loading historical data...
Loading historical data...
Loading historical data...
Loading historical data...
Loading historical data...

STARLINK-11411 Visibility forecast

Observer location: undefined°, undefined

Span
Click to sort rows by Start time (UTC) header in descending order
Start Az.
Max El. time (UTC)
Max El. Az.
Max El.
End time (UTC)
End Az.
4 mins2024-12-26 12:22:55.766Z327.983° NNW2024-12-26 12:24:55.766Z17.805° NNE29.161°2024-12-26 12:26:55.766Z93.477° ESE
4 mins2024-12-27 06:22:55.766Z266.222° W2024-12-27 06:24:55.766Z348.156° N29.549°2024-12-27 06:26:55.766Z33.799° NE
|